Tracking 22223 objects as of 26-Jan-2021
HD Live streaming from Space Station
objects crossing your sky now

LEASAT 5

Track LEASAT 5 now!
LEASAT 5 is classified as:


NORAD ID: 20410
Int'l Code: 1990-002B
Perigee: 35,947.7 km
Apogee: 36,018.7 km
Inclination: 11.7 °
Period: 1,445.8 minutes
Semi major axis: 42354 km
RCS: 12.5892 m2 (large)
Launch date: January 9, 1990
Source: United States (US)
Launch site: AIR FORCE EASTERN TEST RANGE (AFETR)

Ultra High Frequency (UHF) satellite communications services to Australia; leased at end of use by U.S. Navy to Royal Australian Navy.
aabbcc
Your satellite tracking list
Your tracking list is empty




NASA's NSSDC Master Catalog

Two Line Element Set (TLE):
1 20410U 90002B   21025.21346601 -.00000237  00000-0  00000-0 0  9994
2 20410  11.6508   2.2397 0008383  18.3207 160.3865  0.99599717 98817
Source of the keplerian elements: AFSPC